Raton, NM

5:55 PM MDT on August 20, 2017 (GMT -0600)
Raton Municipal-Crews

Weather History for KRTN - February, 2014

Change the Weather History Date:

Monday, February 10, 2014

  Actual Average (KTAD) Record (KTAD)
Temperature  
Mean Temperature 29 °F -  
Max Temperature 39 °F 50 °F 76 °F (2017)
Min Temperature 19 °F 18 °F -17 °F (1981)
Degree Days  
Heating Degree Days 36    
Moisture  
Dew Point 22 °F    
Average Humidity 85    
Maximum Humidity 96    
Minimum Humidity 62    
Precipitation  
Precipitation 0.00 in - - ()
Sea Level Pressure  
Sea Level Pressure 30.01 in    
Wind  
Wind Speed 6 mph (WSW)    
Max Wind Speed 15 mph    
Max Gust Speed -    
Visibility 6 miles    
Events Fog , Snow    
Averages and records for this station are not official NWS values.
T = Trace of Precipitation, MM = Missing Value Source: NWS Daily Summary

Daily Weather History Graph

Daily Weather History Graph

Search for Another Location

Airport or City:

Trip Planner

Search our weather history database for the weather conditions in past years. The results will help you decide how hot, cold, wet, or windy it might be!

Date:

Astronomy

Feb. 10, 2014 Rise Set
Actual Time 6:51 AM MST 5:33 PM MST
Civil Twilight 6:24 AM MST 6:00 PM MST
Nautical Twilight 5:54 AM MST 6:30 PM MST
Astronomical Twilight 5:24 AM MST 7:00 PM MST
Moon 2:06 PM MST (2/10) 3:44 AM MST (2/10)
Length of Visible Light 11h 35m
Length of Day
10h 41m
Waxing Gibbous, 85% of the Moon is Illuminated
Feb 10
Waxing Gibbous
Feb 14
Full
Feb 22
Last Quarter
Mar 1
New
Mar 8
First Quarter

Hourly Weather History & Observations

Time (MST) Temp. Windchill Dew Point Humidity Pressure Visibility Wind Dir Wind Speed Gust Speed Precip Events Conditions
12:53 AM 23.0 °F 13.1 °F 18.0 °F 81% 29.94 in 10.0 mi WSW 9.2 mph - N/A   Clear
1:53 AM 19.0 °F 10.0 °F 16.0 °F 88% 29.96 in 8.0 mi South 6.9 mph - N/A   Clear
2:31 AM 19.0 °F 6.8 °F 17.1 °F 92% 30.03 in 3.0 mi SW 11.5 mph - N/A   Scattered Clouds
2:33 AM 19.0 °F 7.5 °F 17.1 °F 92% 30.03 in 1.8 mi SW 10.4 mph - N/A   Mostly Cloudy
2:43 AM 19.9 °F 8.6 °F 19.0 °F 96% 30.03 in 0.5 mi SSW 10.4 mph - N/A Fog Light Freezing Fog
2:53 AM 19.9 °F 9.3 °F 19.0 °F 96% 29.96 in 0.2 mi SSW 9.2 mph - N/A Fog Light Freezing Fog
3:01 AM 19.9 °F 9.3 °F 19.0 °F 96% 30.03 in 0.5 mi SW 9.2 mph - N/A Fog Light Freezing Fog
3:53 AM 19.9 °F 11.1 °F 19.0 °F 96% 29.97 in 0.5 mi SSW 6.9 mph - N/A Fog Light Freezing Fog
4:53 AM 19.9 °F 10.1 °F 19.0 °F 96% 29.97 in 0.5 mi SSW 8.1 mph - N/A Fog Light Freezing Fog
5:53 AM 21.0 °F 13.4 °F 19.0 °F 92% 29.98 in 0.5 mi West 5.8 mph - N/A Fog Light Freezing Fog
6:53 AM 21.0 °F - 19.0 °F 92% 29.99 in 1.5 mi Calm Calm - N/A   Overcast
7:15 AM 21.9 °F - 19.9 °F 92% 30.02 in 0.5 mi Calm Calm - N/A Fog Light Freezing Fog
7:46 AM 23.0 °F 17.0 °F 19.9 °F 88% 30.01 in 1.5 mi North 4.6 mph - N/A   Overcast
7:53 AM 23.0 °F 17.0 °F 19.9 °F 88% 29.98 in 2.0 mi NNW 4.6 mph - N/A   Overcast
8:02 AM 23.0 °F 17.0 °F 19.9 °F 88% 30.02 in 6.0 mi North 4.6 mph - N/A   Overcast
8:14 AM 23.0 °F - 21.0 °F 92% 30.02 in 9.0 mi Calm Calm - N/A   Overcast
8:53 AM 24.1 °F 19.7 °F 21.0 °F 88% 29.98 in 6.0 mi WSW 3.5 mph - N/A   Overcast
9:51 AM 24.8 °F 20.5 °F 21.2 °F 86% 29.99 in 9.0 mi ENE 3.5 mph - N/A   Overcast
9:53 AM 25.0 °F - 21.9 °F 88% 30.02 in 9.0 mi Calm Calm - N/A   Overcast
10:19 AM 25.0 °F - 21.9 °F 88% 29.99 in 9.0 mi Calm Calm - N/A   Overcast
10:53 AM 26.1 °F - 23.0 °F 88% 30.03 in 10.0 mi Calm Calm - N/A   Overcast
11:53 AM 27.0 °F 23.0 °F 23.0 °F 85% 30.02 in 10.0 mi Variable 3.5 mph - N/A   Overcast
12:53 PM 28.0 °F 21.7 °F 24.1 °F 85% 29.99 in 10.0 mi SSW 5.8 mph - N/A   Overcast
1:53 PM 30.0 °F 25.2 °F 24.1 °F 79% 29.97 in 10.0 mi South 4.6 mph - N/A   Mostly Cloudy
2:05 PM 30.9 °F 24.3 °F 24.1 °F 76% 29.89 in 10.0 mi Variable 6.9 mph - N/A   Scattered Clouds
2:53 PM 35.1 °F - 25.0 °F 67% 29.93 in 10.0 mi Calm Calm - N/A   Clear
3:53 PM 37.9 °F 33.5 °F 26.1 °F 62% 29.94 in 10.0 mi ENE 5.8 mph - N/A   Mostly Cloudy
4:53 PM 39.0 °F 31.8 °F 27.0 °F 62% 29.96 in 10.0 mi NNE 11.5 mph - N/A   Overcast
5:53 PM 37.9 °F 32.1 °F 28.9 °F 70% 29.99 in 10.0 mi NW 8.1 mph - N/A   Overcast
6:43 PM 37.0 °F - 28.9 °F 73% 30.01 in 10.0 mi Calm Calm - N/A   Overcast
6:53 PM 36.0 °F - 30.0 °F 79% 30.05 in 7.0 mi Calm Calm - 0.00 in Snow Light Snow
7:18 PM 34.0 °F 28.8 °F 27.0 °F 75% 30.02 in 10.0 mi WSW 5.8 mph - 0.00 in   Overcast
7:53 PM 28.9 °F 17.7 °F 24.1 °F 82% 30.10 in 5.0 mi SSW 15.0 mph - 0.00 in Snow Light Snow
8:53 PM 26.1 °F 17.6 °F 23.0 °F 88% 30.13 in 10.0 mi SSW 8.1 mph - 0.00 in   Overcast
9:53 PM 24.1 °F 14.4 °F 21.0 °F 88% 30.14 in 10.0 mi SSW 9.2 mph - N/A   Scattered Clouds
10:53 PM 23.0 °F 18.4 °F 19.9 °F 88% 30.14 in 8.0 mi SW 3.5 mph - N/A   Mostly Cloudy
11:53 PM 23.0 °F 18.4 °F 21.0 °F 92% 30.14 in 8.0 mi NNE 3.5 mph - N/A   Mostly Cloudy